Bloomington, IN

12:26 AM EDT on May 24, 2017 (GMT -0400)
Monroe County

Weather History for KBMG - September, 2014

Change the Weather History Date:

Saturday, September 27, 2014

  Actual Average Record
Temperature  
Mean Temperature 66 °F 61 °F  
Max Temperature 82 °F 74 °F 89 °F (1998)
Min Temperature 50 °F 48 °F 39 °F (2000)
Degree Days  
Heating Degree Days 0 6  
Month to date heating degree days 97 59  
Since 1 July heating degree days 103 66  
Cooling Degree Days 1 1  
Month to date cooling degree days 58 93  
Year to date cooling degree days 888 910  
Growing Degree Days 15 (Base 50)    
Moisture  
Dew Point 54 °F    
Average Humidity 70    
Maximum Humidity 100    
Minimum Humidity 39    
Precipitation  
Precipitation 0.00 in 0.12 in 0.87 in (2002)
Month to date precipitation 4.11 2.95  
Year to date precipitation 34.74 36.14  
Sea Level Pressure  
Sea Level Pressure 30.19 in    
Wind  
Wind Speed 2 mph (East)    
Max Wind Speed 10 mph    
Max Gust Speed 14 mph    
Visibility 6 miles    
Events Fog    
T = Trace of Precipitation, MM = Missing Value Source: NWS Daily Summary

Daily Weather History Graph

Daily Weather History Graph

Search for Another Location

Airport or City:

Trip Planner

Search our weather history database for the weather conditions in past years. The results will help you decide how hot, cold, wet, or windy it might be!

Date:

Astronomy

Sep. 27, 2014 Rise Set
Actual Time 7:38 AM EDT 7:35 PM EDT
Civil Twilight 7:12 AM EDT 8:02 PM EDT
Nautical Twilight 6:40 AM EDT 8:33 PM EDT
Astronomical Twilight 6:09 AM EDT 9:04 PM EDT
Moon 10:51 AM EDT (9/27) 9:36 PM EDT (9/27)
Length of Visible Light 12h 49m
Length of Day
11h 56m
Waxing Crescent, 11% of the Moon is Illuminated
Sep 27
Waxing Crescent
Oct 1
First Quarter
Oct 8
Full
Oct 15
Last Quarter
Oct 23
New

Hourly Weather History & Observations

Time (EDT) Temp. Heat Index Dew Point Humidity Pressure Visibility Wind Dir Wind Speed Gust Speed Precip Events Conditions
12:00 AM 57.0 °F - 55.0 °F 93% 30.21 in 0.2 mi Calm Calm - N/A Fog Fog
12:21 AM 55.9 °F - 55.0 °F 97% 30.21 in 0.8 mi Calm Calm - N/A   Clear
12:43 AM 54.0 °F - 53.1 °F 97% 30.21 in 2.0 mi Calm Calm - N/A   Clear
12:53 AM 55.0 °F - 53.1 °F 93% 30.20 in 1.2 mi North 4.6 mph - N/A   Clear
1:00 AM 55.0 °F - 55.0 °F 100% 30.21 in 4.0 mi Calm Calm - N/A   Clear
1:29 AM 55.0 °F - 53.1 °F 93% 30.20 in 1.5 mi Calm Calm - N/A   Clear
1:53 AM 55.0 °F - 55.0 °F 100% 30.19 in 4.0 mi Calm Calm - N/A   Clear
2:39 AM 55.0 °F - 53.1 °F 93% 30.21 in 2.0 mi Calm Calm - N/A   Clear
2:49 AM 53.6 °F - 51.8 °F 94% 30.21 in 7.0 mi Calm Calm - N/A   Clear
2:53 AM 55.0 °F - 53.1 °F 93% 30.20 in 3.0 mi Calm Calm - N/A   Clear
2:55 AM 55.0 °F - 53.1 °F 93% 30.21 in 1.8 mi Calm Calm - N/A   Clear
3:06 AM 54.0 °F - 53.1 °F 97% 30.21 in 3.0 mi Calm Calm - N/A   Clear
3:27 AM 54.0 °F - 52.0 °F 93% 30.20 in 1.5 mi Calm Calm - N/A   Clear
3:35 AM 53.1 °F - 52.0 °F 96% 30.20 in 0.5 mi Calm Calm - N/A Fog Fog
3:46 AM 54.0 °F - 52.0 °F 93% 30.20 in 2.5 mi Calm Calm - N/A   Clear
3:53 AM 54.0 °F - 53.1 °F 97% 30.19 in 5.0 mi Calm Calm - N/A   Clear
4:53 AM 52.0 °F - 51.1 °F 97% 30.19 in 5.0 mi Calm Calm - N/A   Clear
4:59 AM 53.1 °F - 52.0 °F 96% 30.20 in 1.8 mi Calm Calm - N/A   Clear
5:07 AM 53.1 °F - 52.0 °F 96% 30.20 in 3.0 mi Calm Calm - N/A   Clear
5:53 AM 54.0 °F - 52.0 °F 93% 30.19 in 10.0 mi Calm Calm - N/A   Clear
6:53 AM 52.0 °F - 51.1 °F 97% 30.20 in 10.0 mi Calm Calm - N/A   Clear
7:53 AM 51.1 °F - 50.0 °F 96% 30.22 in 7.0 mi Calm Calm - N/A   Clear
7:59 AM 51.1 °F - 50.0 °F 96% 30.22 in 1.8 mi Calm Calm - N/A   Clear
8:11 AM 50.0 °F - 48.9 °F 96% 30.22 in 10.0 mi Calm Calm - N/A   Clear
8:53 AM 55.0 °F - 54.0 °F 96% 30.22 in 10.0 mi Calm Calm - N/A   Clear
9:53 AM 64.9 °F - 57.0 °F 75% 30.23 in 10.0 mi East 4.6 mph - N/A   Clear
10:53 AM 70.0 °F - 57.0 °F 63% 30.22 in 10.0 mi East 6.9 mph - N/A   Clear
11:53 AM 73.0 °F - 57.0 °F 57% 30.22 in 10.0 mi ESE 4.6 mph - N/A   Clear
12:53 PM 77.0 °F - 57.9 °F 52% 30.21 in 10.0 mi Variable 3.5 mph - N/A   Clear
1:53 PM 79.0 °F - 52.0 °F 39% 30.19 in 10.0 mi East 8.1 mph - N/A   Partly Cloudy
2:53 PM 80.1 °F 80.0 °F 54.0 °F 40% 30.16 in 10.0 mi Variable 5.8 mph - N/A   Clear
3:53 PM 80.1 °F 80.0 °F 54.0 °F 40% 30.14 in 10.0 mi East 9.2 mph - N/A   Clear
4:53 PM 80.1 °F 80.2 °F 55.9 °F 43% 30.14 in 10.0 mi East 8.1 mph - N/A   Partly Cloudy
5:53 PM 80.1 °F 80.0 °F 54.0 °F 40% 30.13 in 10.0 mi ENE 3.5 mph - N/A   Clear
6:53 PM 77.0 °F - 55.9 °F 48% 30.12 in 10.0 mi ESE 3.5 mph - N/A   Clear
7:53 PM 64.9 °F - 59.0 °F 81% 30.13 in 10.0 mi Calm Calm - N/A   Clear
8:53 PM 61.0 °F - 59.0 °F 93% 30.14 in 10.0 mi Calm Calm - N/A   Clear
9:53 PM 60.1 °F - 57.0 °F 90% 30.14 in 8.0 mi Calm Calm - N/A   Clear
10:53 PM 57.9 °F - 55.9 °F 93% 30.14 in 3.0 mi Calm Calm - N/A   Clear
11:26 PM 57.0 °F - 55.0 °F 93% 30.15 in 1.5 mi Calm Calm - N/A   Clear
11:36 PM 57.9 °F - 55.0 °F 90% 30.15 in 0.5 mi Calm Calm - N/A Fog Fog
11:53 PM 57.9 °F - 55.9 °F 93% 30.14 in 0.5 mi Calm Calm - N/A Fog Fog